Location: Newark
(7.0858°N, 171.3717°E)
Time: 21:01:53
(UTC+00:00)

Vanguard 2 - Pass Details

Date: 01 December 2020
Orbit: 553 x 2937 km, 32.9° (Epoch: 17 January)

Event Time Altitude Azimuth Distance (km) Brightness Sun altitude
Rises 07:24:55 0° 266° (W) 3,739 12.5 -16.8°
Reaches altitude 10° 07:28:00 10° 249° (WSW) 3,108 11.9 -17.5°
Maximum altitude 07:33:41 21° 203° (SSW) 2,937 11.0 -18.8°
Drops below altitude 10° 07:41:33 10° 160° (SSE) 4,456 11.4 -20.7°
Sets 07:47:20 0° 146° (SE) 5,929 11.9 -22.0°
